Regional Weather Roundup
Issued by NWS

Home | Current Version | Previous Version | Graphics & Text | Print | Product List | Glossary On
Versions: 1 2 3 4 5 6 7 8 9 10 11 12 13 14 15 16 17 18 19 20 21 22 23 24 25 26 27 28 29 30 31 32 33 34 35 36 37 38 39 40 41 42 43 44 45 46 47 48 49 50
000
ASUS43 KLMK 241402
RWRKY
KENTUCKY REGIONAL WEATHER ROUNDUP
NATIONAL WEATHER SERVICE LOUISVILLE KY
1000 AM EDT SUN SEP 24 2017

NOTE "FAIR" INDICATES FEW OR NO CLOUDS BELOW 12,000 FEET
WITH NO SIGNIFICANT WEATHER AND/OR OBSTRUCTIONS TO VISIBILITY.

KYZ001>023-026-027-061>063-070>075-241500-
WESTERN AND SOUTH CENTRAL KENTUCKY

CITY           SKY/WX    TMP DP  RH WIND       PRES   REMARKS
PADUCAH        SUNNY     77  69  76 E5        30.05R
HENDERSON      SUNNY     75  66  73 VRB5      30.08R
OWENSBORO      SUNNY     78  66  66 CALM      30.08R
HOPKINSVILLE   SUNNY     74  68  79 SE3       30.07R
BOWLING GREEN  SUNNY     70  68  93 CALM      30.08S
GLASGOW        NOT AVBL
$$

KYZ024-025-028>034-038-045-046-053-241500-
NORTH CENTRAL KENTUCKY

CITY           SKY/WX    TMP DP  RH WIND       PRES   REMARKS
LOUISVILLE/SDF MOSUNNY   75  64  68 E3        30.09R
LOUISVILLE/LOU SUNNY     76  66  71 CALM      30.10R
FORT KNOX      SUNNY     73  64  75 E5        30.08R
$$

KYZ035>037-039>044-047>052-055>060-089>105-241500-
NORTHEAST KENTUCKY

CITY           SKY/WX    TMP DP  RH WIND       PRES   REMARKS
LEXINGTON      SUNNY     76  64  66 SE5       30.12S
COVINGTON      SUNNY     74  63  68 E8        30.12S
FRANKFORT      SUNNY     74  63  68 E3        30.10S
$$

KYZ054-064>069-076>088-106>120-241500-
SOUTHEAST KENTUCKY

CITY           SKY/WX    TMP DP  RH WIND       PRES   REMARKS
JACKSON        SUNNY     71  61  70 CALM      30.15R
LONDON         SUNNY     72  63  73 SE3       30.13R
SOMERSET       NOT AVBL
MIDDLESBORO    SUNNY     72  65  80 CALM      30.16R
MONTICELLO     SUNNY     74  67  78 VRB3      30.13S
$$




USA.gov is the U.S. government's official web portal to all federal, state and local government web resources and services.